Regional Weather Roundup
Issued by NWS

Home | Current Version | Previous Version | Graphics & Text | Print | Product List | Glossary On
Versions: 1 2 3 4 5 6 7 8 9 10 11 12 13 14 15 16 17 18 19 20 21 22 23 24 25 26 27 28 29 30 31 32 33 34 35 36 37 38 39 40 41 42 43 44 45 46 47 48 49 50
242
ASUS44 KJAN 310510
RWRMS

MISSISSIPPI HOURLY WEATHER ROUNDUP
NATIONAL WEATHER SERVICE JACKSON MS
1200 AM CDT TUE MAR 31 2015

NOTE: "FAIR: INDICATES FEW OR NO CLOUDS BELOW 12,000 FEET WITH NO
SIGNIFICANT WEATHER AND/OR OBSTRUCTIONS TO VISIBILITY.

MSZ001>002-007>008-010>013-018>021-025>028-034>036-310600-
NORTHWEST MISSISSIPPI

CITY           SKY/WX    TMP DP  RH WIND       PRES   REMARKS
CLARKSDALE       N/A     57  55  94 CALM      30.08F
CLEVELAND      FAIR      61  54  77 S3        30.07F
GREENWOOD      CLEAR     56  51  84 NE5       30.09F
GREENVILLE     NOT AVBL
OLIVE BRANCH   CLEAR     52  46  82 CALM      30.08F
OXFORD         FAIR      48  45  87 CALM      30.10F
TUNICA         CLEAR     54  50  87 CALM      30.08F
$$

MSZ003>006-009-014>017-022>024-029>033-037>039-310600-
NORTHEAST MISSISSIPPI

CITY           SKY/WX    TMP DP  RH WIND       PRES   REMARKS
COLUMBUS AFB   CLEAR     51  47  86 E1        30.09F
CORINTH        FAIR      50  46  87 CALM      30.09S
GOLDN TRIANGLE CLEAR     57  48  72 CALM      30.09F
STARKVILLE     FAIR      52  50  93 CALM      30.10F
TUPELO         CLEAR     50  46  86 CALM      30.09F
$$

MSZ040-058-310600-
CENTRAL MISSISSIPPI

CITY           SKY/WX    TMP DP  RH WIND       PRES   REMARKS
JACKSON INTL   CLEAR     59  57  93 SE5       30.11F
JACKSON HAWKNS CLEAR     62  58  86 CALM      30.11F
MERIDIAN KEY   CLEAR     57  56  96 CALM      30.12S
MERIDIAN NAS   CLEAR     61  57  88 SW6       30.10F
RAYMOND        FAIR      59  55  88 MISG      30.10F
VICKSBURG      CLEAR     58  56  93 CALM      30.10F
$$

MSZ059>079-310600-
SOUTH MISSISSIPPI

CITY           SKY/WX    TMP DP  RH WIND       PRES   REMARKS
BROOKHAVEN     FAIR      63  57  82 CALM      30.14F
HATTIESBURG    CLEAR     65  57  75 SW5       30.13F
MCCOMB         CLEAR     66  59  78 SW3       30.14S
NATCHEZ        CLEAR     66  57  72 S5        30.13S
PINE BELT      CLEAR     57  54  88 SW3       30.13F
$$

MSZ080>082-310600-
COASTAL MISSISSIPPI

CITY           SKY/WX    TMP DP  RH WIND       PRES   REMARKS
BILOXI         CLEAR     69  66  90 W7        30.14F
PASCAGOULA     CLEAR     68  64  87 SW5       30.15F
GULFPORT       CLEAR     69  64  84 SW5       30.14F
$$



USA.gov is the U.S. government's official web portal to all federal, state and local government web resources and services.